• In Hungary
  • List of Countries
  • For 7 days
  • Water Temperature
  • Satellite Maps
  • Weather Map
  • News
  • Weather Widgets
  • user-avatar
    Login

    Hourly Weather Rumburk

    Today, 19 February, Monday

    Time Temperature Precipitation Wind Pressure Humidity
    00:00 -2°C° 0 mm 1 mps 731 mmHg 83%
    01:00 -2°C° 0 mm 1 mps 730 mmHg 83%
    02:00 -4°C° 0 mm 2 mps 730 mmHg 83%
    03:00 -4°C° 0 mm 2 mps 729 mmHg 82%
    04:00 -4°C° 0 mm 2 mps 729 mmHg 82%
    05:00 -4°C° 0 mm 2 mps 729 mmHg 81%
    06:00 -4°C° 0 mm 2 mps 729 mmHg 81%
    07:00 -4°C° 0 mm 2 mps 728 mmHg 80%
    08:00 -3°C° 0 mm 2 mps 728 mmHg 74%
    09:00 -3°C° 0 mm 2 mps 728 mmHg 68%
    10:00 -2°C° 0 mm 2 mps 728 mmHg 62%
    11:00 -1°C° 0 mm 2 mps 728 mmHg 57%
    12:00 +1°C° 0 mm 2 mps 727 mmHg 53%
    13:00 +2°C° 0 mm 2 mps 727 mmHg 49%
    14:00 +2°C° 0 mm 2 mps 727 mmHg 51%
    15:00 +2°C° 0 mm 2 mps 726 mmHg 52%
    16:00 +1°C° 0 mm 2 mps 726 mmHg 54%
    17:00 +1°C° 0 mm 1 mps 726 mmHg 58%
    18:00 0°C° 0 mm 1 mps 725 mmHg 63%
    19:00 -1°C° 0 mm 1 mps 725 mmHg 68%
    20:00 -1°C° 0 mm 1 mps 725 mmHg 70%
    21:00 -3°C° 0 mm 2 mps 725 mmHg 73%
    22:00 -3°C° 0 mm 2 mps 725 mmHg 76%
    23:00 -3°C° 0 mm 2 mps 725 mmHg 77%

    Tomorrow, 20 February, Tuesday

    Time Temperature Precipitation Wind Pressure Humidity
    00:00 -4°C° 0 mm 2 mps 725 mmHg 78%
    01:00 -2°C° 0 mm 1 mps 725 mmHg 79%
    02:00 -2°C° 0 mm 1 mps 724 mmHg 78%
    03:00 -2°C° 0 mm 1 mps 724 mmHg 78%
    04:00 -2°C° 0 mm 1 mps 724 mmHg 77%
    05:00 -2°C° 0 mm 1 mps 724 mmHg 76%
    06:00 -2°C° 0 mm 1 mps 724 mmHg 75%
    07:00 -2°C° 0 mm 1 mps 724 mmHg 75%
    08:00 -3°C° 0 mm 2 mps 724 mmHg 68%
    09:00 -2°C° 0 mm 2 mps 724 mmHg 62%
    10:00 -1°C° 0 mm 2 mps 725 mmHg 56%
    11:00 +1°C° 0 mm 2 mps 725 mmHg 53%
    12:00 +2°C° 0 mm 2 mps 725 mmHg 51%
    13:00 +3°C° 0 mm 2 mps 725 mmHg 48%
    14:00 +2°C° 0 mm 2 mps 725 mmHg 51%
    15:00 +2°C° 0 mm 2 mps 725 mmHg 54%
    16:00 +2°C° 0 mm 2 mps 724 mmHg 56%
    17:00 -1°C° 0 mm 2 mps 725 mmHg 62%
    18:00 -2°C° 0 mm 2 mps 725 mmHg 68%
    19:00 -3°C° 0 mm 2 mps 725 mmHg 73%
    20:00 -4°C° 0 mm 2 mps 725 mmHg 74%
    21:00 -4°C° 0 mm 2 mps 725 mmHg 75%
    22:00 -4°C° 0 mm 2 mps 726 mmHg 76%
    23:00 -5°C° 0 mm 2 mps 726 mmHg 77%

    Day after tomorrow, 21 February, Wednesday

    Time Temperature Precipitation Wind Pressure Humidity
    00:00 -5°C° 0 mm 2 mps 726 mmHg 77%
    01:00 -5°C° 0 mm 2 mps 726 mmHg 77%
    02:00 -5°C° 0 mm 2 mps 726 mmHg 77%
    03:00 -5°C° 0 mm 2 mps 726 mmHg 76%
    04:00 -5°C° 0 mm 2 mps 726 mmHg 76%
    05:00 -5°C° 0 mm 2 mps 726 mmHg 76%
    06:00 -6°C° 0 mm 2 mps 727 mmHg 77%
    07:00 -6°C° 0 mm 2 mps 727 mmHg 77%
    08:00 -6°C° 0 mm 3 mps 727 mmHg 71%
    09:00 -5°C° 0 mm 3 mps 727 mmHg 65%
    10:00 -2°C° 0 mm 3 mps 728 mmHg 60%
    11:00 -2°C° 0 mm 3 mps 728 mmHg 56%
    12:00 -1°C° 0 mm 3 mps 727 mmHg 52%
    13:00 -1°C° 0 mm 4 mps 727 mmHg 48%
    14:00 -1°C° 0 mm 4 mps 727 mmHg 49%
    15:00 -1°C° 0 mm 4 mps 727 mmHg 51%
    16:00 -1°C° 0 mm 4 mps 727 mmHg 52%
    17:00 -2°C° 0 mm 4 mps 727 mmHg 59%
    18:00 -4°C° 0 mm 4 mps 727 mmHg 65%
    19:00 -5°C° 0 mm 3 mps 727 mmHg 72%
    20:00 -5°C° 0 mm 3 mps 727 mmHg 74%
    21:00 -5°C° 0 mm 3 mps 727 mmHg 76%
    22:00 -6°C° 0 mm 3 mps 727 mmHg 79%
    23:00 -6°C° 0 mm 3 mps 727 mmHg 79%

    22 February, Thursday

    Time Temperature Precipitation Wind Pressure Humidity
    00:00 -6°C° 0 mm 3 mps 727 mmHg 79%
    01:00 -6°C° 0 mm 3 mps 727 mmHg 79%
    02:00 -7°C° 0 mm 4 mps 727 mmHg 78%
    03:00 -7°C° 0 mm 4 mps 727 mmHg 77%
    04:00 -8°C° 0 mm 4 mps 727 mmHg 76%
    05:00 -8°C° 0 mm 4 mps 727 mmHg 75%
    06:00 -8°C° 0 mm 4 mps 727 mmHg 74%
    07:00 -8°C° 0 mm 4 mps 727 mmHg 73%
    08:00 -7°C° 0 mm 5 mps 727 mmHg 66%
    09:00 -6°C° 0 mm 5 mps 727 mmHg 60%
    10:00 -6°C° 0 mm 5 mps 727 mmHg 54%
    11:00 -5°C° 0 mm 5 mps 727 mmHg 51%
    12:00 -4°C° 0 mm 6 mps 727 mmHg 47%
    13:00 -3°C° 0 mm 6 mps 727 mmHg 44%
    14:00 -4°C° 0 mm 6 mps 727 mmHg 44%
    15:00 -4°C° 0 mm 6 mps 727 mmHg 45%
    16:00 -4°C° 0 mm 5 mps 726 mmHg 45%
    17:00 -5°C° 0 mm 5 mps 726 mmHg 48%
    18:00 -6°C° 0 mm 5 mps 726 mmHg 52%
    19:00 -7°C° 0 mm 4 mps 726 mmHg 55%
    20:00 -7°C° 0 mm 4 mps 727 mmHg 56%
    21:00 -7°C° 0 mm 4 mps 727 mmHg 57%
    22:00 -8°C° 0 mm 4 mps 727 mmHg 57%
    23:00 -8°C° 0 mm 4 mps 727 mmHg 59%

    23 February, Friday

    Time Temperature Precipitation Wind Pressure Humidity
    00:00 -8°C° 0 mm 4 mps 727 mmHg 61%
    01:00 -8°C° 0 mm 4 mps 727 mmHg 63%
    02:00 -8°C° 0 mm 4 mps 727 mmHg 64%
    03:00 -9°C° 0 mm 4 mps 726 mmHg 65%
    04:00 -9°C° 0 mm 4 mps 726 mmHg 66%
    05:00 -9°C° 0 mm 4 mps 727 mmHg 66%
    06:00 -9°C° 0 mm 4 mps 727 mmHg 65%
    07:00 -9°C° 0 mm 4 mps 727 mmHg 65%
    08:00 -10°C° 0 mm 5 mps 727 mmHg 60%
    09:00 -8°C° 0 mm 5 mps 728 mmHg 55%
    10:00 -7°C° 0 mm 5 mps 728 mmHg 51%
    11:00 -7°C° 0 mm 5 mps 728 mmHg 47%
    12:00 -6°C° 0 mm 5 mps 728 mmHg 44%
    13:00 -5°C° 0 mm 6 mps 728 mmHg 41%
    14:00 -5°C° 0 mm 6 mps 728 mmHg 41%
    15:00 -6°C° 0 mm 6 mps 729 mmHg 40%
    16:00 -6°C° 0 mm 6 mps 729 mmHg 39%
    17:00 -7°C° 0 mm 5 mps 729 mmHg 40%
    18:00 -8°C° 0 mm 5 mps 729 mmHg 41%
    19:00 -10°C° 0 mm 5 mps 730 mmHg 42%
    20:00 -9°C° 0 mm 4 mps 730 mmHg 42%
    21:00 -9°C° 0 mm 4 mps 730 mmHg 41%
    22:00 -9°C° 0 mm 4 mps 731 mmHg 41%
    23:00 -9°C° 0 mm 4 mps 731 mmHg 43%

    24 February, Saturday

    Time Temperature Precipitation Wind Pressure Humidity
    00:00 -9°C° 0 mm 3 mps 731 mmHg 44%
    01:00 -9°C° 0 mm 3 mps 731 mmHg 46%
    02:00 -9°C° 0 mm 3 mps 731 mmHg 49%
    03:00 -9°C° 0 mm 3 mps 731 mmHg 51%
    04:00 -8°C° 0 mm 2 mps 731 mmHg 54%
    05:00 -9°C° 0 mm 2 mps 731 mmHg 57%
    06:00 -9°C° 0 mm 2 mps 732 mmHg 59%
    07:00 -9°C° 0 mm 2 mps 732 mmHg 61%
    08:00 -8°C° 0 mm 2 mps 733 mmHg 59%
    09:00 -8°C° 0 mm 3 mps 733 mmHg 56%
    10:00 -8°C° 0 mm 4 mps 733 mmHg 54%
    11:00 -8°C° 0 mm 4 mps 733 mmHg 49%
    12:00 -7°C° 0 mm 4 mps 733 mmHg 44%
    13:00 -7°C° 0 mm 4 mps 733 mmHg 39%
    14:00 -7°C° 0 mm 4 mps 733 mmHg 39%
    15:00 -7°C° 0 mm 4 mps 732 mmHg 39%
    16:00 -7°C° 0 mm 4 mps 732 mmHg 39%
    17:00 -7°C° 0 mm 4 mps 731 mmHg 44%
    18:00 -7°C° 0 mm 3 mps 731 mmHg 49%
    19:00 -7°C° 0 mm 3 mps 731 mmHg 54%
    20:00 -9°C° 0.1 mm 4 mps 731 mmHg 58%
    21:00 -9°C° 0.1 mm 4 mps 731 mmHg 62%
    22:00 -10°C° 0.1 mm 5 mps 731 mmHg 66%
    23:00 -10°C° 0.1 mm 5 mps 730 mmHg 64%
    Show more